DW3433 Weather Reports


time (UTC)temp
F
wind
direction
speed
knots
gust
knots
rain 1hr
in
rain 24hr
in
rain mn
in
humidity
%
barometer
mb
20260505125027 67 224 8.7 18.2 0.00 0.00 0.00 66 1015.4
20260505124528 67 246 6.1 12.2 0.00 0.00 0.00 66 1015.4
20260505124028 67 217 2.6 14.8 0.00 0.00 0.00 66 1015.3
20260505123527 67 225 3.5 14.8 0.00 0.00 0.00 66 1015.3
20260505123027 66 243 4.3 13.0 0.00 0.00 0.00 66 1015.3
20260505122527 66 277 8.7 16.5 0.00 0.00 0.00 66 1015.3
20260505122027 66 218 8.7 16.5 0.00 0.00 0.00 67 1015.3
20260505121527 66 258 11.3 12.2 0.00 0.00 0.00 68 1015.3
20260505121026 65 216 2.6 12.2 0.00 0.00 0.00 68 1015.3
20260505120527 65 221 1.7 12.2 0.00 0.00 0.00 69 1015.3
20260505120027 65 162 7.8 12.2 0.00 0.00 0.00 69 1015.3
20260505115527 65 230 5.2 12.2 0.00 0.00 0.00 69 1014.9
20260505115027 65 162 7.8 12.2 0.00 0.00 0.00 69 1014.9
20260505114526 65 220 3.5 13.0 0.00 0.00 0.00 69 1014.9
20260505114026 65 212 11.3 13.9 0.00 0.00 0.00 70 1014.9
20260505113526 64 224 2.6 13.9 0.00 0.00 0.00 70 1014.9
20260505113027 64 224 7.8 10.4 0.00 0.00 0.00 70 1014.9
20260505112526 64 219 8.7 12.2 0.00 0.00 0.00 69 1015.0
20260505111526 64 221 10.4 13.9 0.00 0.00 0.00 69 1015.0
20260505111026 64 252 5.2 13.9 0.00 0.00 0.00 69 1014.9
20260505110526 64 200 5.2 14.8 0.00 0.00 0.00 69 1014.9
20260505102026 64 224 6.1 13.9 0.00 0.00 0.00 69 1014.3
20260505101526 64 200 8.7 11.3 0.00 0.00 0.00 70 1014.3
20260505101026 63 269 2.6 11.3 0.00 0.00 0.00 70 1014.3
20260505100526 63 198 1.7 10.4 0.00 0.00 0.00 71 1014.3
20260505100026 63 250 4.3 10.4 0.00 0.00 0.00 71 1014.3
20260505095526 63 219 10.4 10.4 0.00 0.00 0.00 71 1014.2
20260505094026 64 262 9.6 13.9 0.00 0.00 0.00 70 1013.9
20260505093526 64 203 5.2 13.9 0.00 0.00 0.00 70 1013.9
20260505093026 64 115 3.5 13.9 0.00 0.00 0.00 70 1013.9
20260505092526 64 259 13.9 13.9 0.00 0.00 0.00 70 1013.8
20260505092026 64 198 5.2 11.3 0.00 0.00 0.00 70 1013.8
20260505091526 64 236 4.3 11.3 0.00 0.00 0.00 70 1013.8
20260505090526 64 181 5.2 11.3 0.00 0.00 0.00 70 1013.8
20260505090026 64 239 6.1 13.0 0.00 0.00 0.00 70 1013.8
20260505085526 64 243 6.1 13.0 0.00 0.00 0.00 70 1013.9
20260505085026 64 257 2.6 11.3 0.00 0.00 0.00 70 1013.9
20260505084527 64 245 0.0 11.3 0.00 0.00 0.00 70 1013.9
20260505084026 64 257 3.5 12.2 0.00 0.00 0.00 70 1013.9
20260505083526 64 218 0.9 12.2 0.00 0.00 0.00 69 1013.9
20260505083026 64 212 3.5 12.2 0.00 0.00 0.00 69 1013.9
20260505082526 64 267 7.0 11.3 0.00 0.00 0.00 69 1013.9
20260505082026 65 237 5.2 10.4 0.00 0.00 0.00 69 1013.9
20260505081526 65 221 6.1 9.6 0.00 0.00 0.00 70 1013.9
20260505081026 65 206 5.2 9.6 0.00 0.00 0.00 69 1013.8
20260505080526 64 222 3.5 10.4 0.00 0.00 0.00 70 1013.8
20260505080026 64 219 1.7 10.4 0.00 0.00 0.00 69 1013.8
20260505075526 64 225 4.3 10.4 0.00 0.00 0.00 70 1013.8
20260505075026 64 209 5.2 9.6 0.00 0.00 0.00 70 1013.8
20260505074526 64 221 2.6 9.6 0.00 0.00 0.00 70 1013.8
20260505074026 64 213 3.5 6.1 0.00 0.00 0.00 70 1013.8
20260505073526 64 222 1.7 9.6 0.00 0.00 0.00 69 1013.8
20260505073026 65 258 0.9 9.6 0.00 0.00 0.00 69 1013.8
20260505072526 65 210 4.3 11.3 0.00 0.00 0.00 69 1013.8
20260505072025 65 182 4.3 11.3 0.00 0.00 0.00 69 1013.8
20260505071526 65 226 3.5 11.3 0.00 0.00 0.00 69 1013.8
20260505071026 65 227 5.2 12.2 0.00 0.00 0.00 69 1013.8
20260505065526 65 222 6.1 12.2 0.00 0.00 0.00 68 1013.6
20260505065026 65 205 5.2 13.9 0.00 0.00 0.00 68 1013.6
20260505064526 65 217 11.3 17.4 0.00 0.00 0.00 67 1013.6
20260505064026 65 252 11.3 17.4 0.00 0.00 0.00 68 1013.6
20260505063525 65 226 5.2 15.6 0.00 0.00 0.00 68 1013.6
20260505062525 66 223 2.6 13.9 0.00 0.00 0.00 67 1013.6
20260505062025 66 231 12.2 13.9 0.00 0.00 0.00 68 1013.6
20260505061525 66 226 13.0 13.0 0.00 0.00 0.00 67 1013.6
20260505061025 66 218 7.8 11.3 0.00 0.00 0.00 68 1013.7
20260505060525 66 207 3.5 11.3 0.00 0.00 0.00 68 1013.7
20260505055525 66 223 5.2 12.2 0.00 0.00 0.00 68 1013.7
20260505054525 66 196 4.3 15.6 0.00 0.00 0.00 67 1013.7
20260505054025 66 209 7.8 15.6 0.00 0.00 0.00 68 1013.7
20260505053525 66 198 11.3 13.9 0.00 0.00 0.00 68 1013.7
20260505053025 66 212 2.6 13.9 0.00 0.00 0.00 68 1013.7
20260505052525 66 293 5.2 13.9 0.00 0.00 0.00 67 1013.6
20260505052025 66 180 9.6 13.0 0.00 0.00 0.00 67 1013.6
20260505051525 66 233 4.3 12.2 0.00 0.00 0.00 67 1013.6
20260505051025 67 209 5.2 14.8 0.00 0.00 0.00 67 1013.5
20260505050525 67 221 4.3 14.8 0.00 0.00 0.00 66 1013.5
20260505041525 68 212 10.4 18.2 0.00 0.00 0.00 66 1013.8
20260505041025 68 200 10.4 18.2 0.00 0.00 0.00 66 1013.8
20260505040525 68 264 5.2 15.6 0.00 0.00 0.00 66 1013.8
20260505040025 68 202 7.8 13.9 0.00 0.00 0.00 66 1013.8
20260505035525 68 172 7.0 14.8 0.00 0.00 0.00 66 1013.8
20260505034525 68 210 7.8 16.5 0.00 0.00 0.00 66 1013.8
20260505034025 68 179 9.6 16.5 0.00 0.00 0.00 67 1013.7
20260505033525 68 188 6.1 15.6 0.00 0.00 0.00 66 1013.7
20260505033025 68 193 3.5 16.5 0.00 0.00 0.00 66 1013.7
20260505032525 68 205 7.8 16.5 0.00 0.00 0.00 67 1013.7
20260505032025 68 200 6.1 16.5 0.00 0.00 0.00 67 1013.7
20260505031525 68 178 11.3 16.5 0.00 0.00 0.00 67 1013.7
20260505031025 68 212 11.3 13.9 0.00 0.00 0.00 67 1013.4
20260505030525 68 181 4.3 12.2 0.00 0.00 0.00 68 1013.4
20260505025525 69 205 6.1 21.7 0.00 0.00 0.00 67 1013.3
20260505025025 69 218 4.3 20.0 0.00 0.00 0.00 67 1013.3
20260505024525 69 159 7.8 17.4 0.00 0.00 0.00 68 1013.3
20260505024025 69 186 6.1 16.5 0.00 0.00 0.00 68 1013.3
20260505023525 69 212 8.7 14.8 0.00 0.00 0.00 67 1013.3
20260505023025 69 176 4.3 18.2 0.00 0.00 0.00 68 1013.3
20260505022525 69 191 9.6 19.1 0.00 0.00 0.00 68 1013.2
20260505021525 69 204 8.7 13.9 0.00 0.00 0.00 67 1013.2
20260505020525 70 188 7.0 17.4 0.00 0.00 0.00 67 1013.1
20260505020025 70 171 11.3 17.4 0.00 0.00 0.00 67 1013.1
20260505015525 70 165 9.6 15.6 0.00 0.00 0.00 67 1012.9
20260505015026 70 176 12.2 15.6 0.00 0.00 0.00 66 1012.9
20260505014526 70 150 13.0 13.0 0.00 0.00 0.00 66 1012.9
20260505014025 70 169 4.3 10.4 0.00 0.00 0.00 65 1013.0
20260505013525 70 182 5.2 9.6 0.00 0.00 0.00 64 1013.0
20260505013025 71 174 5.2 12.2 0.00 0.00 0.00 63 1013.0
20260505012024 71 186 7.8 11.3 0.00 0.00 0.00 58 1012.8
20260505011524 71 162 6.1 11.3 0.00 0.00 0.00 55 1012.8
20260505011025 72 196 5.2 7.8 0.00 0.00 0.00 52 1012.7
20260505010524 72 198 2.6 7.8 0.00 0.00 0.00 51 1012.7
20260505010024 72 219 0.9 4.3 0.00 0.00 0.00 48 1012.7
20260505005525 72 222 0.0 3.5 0.00 0.00 0.00 50 1012.4
20260505004524 72 222 3.5 4.3 0.00 0.00 0.00 47 1012.4
20260505004025 73 222 1.7 3.5 0.00 0.00 0.00 48 1012.2
20260505003525 73 222 1.7 2.6 0.00 0.00 0.00 47 1012.2
20260505003025 73 222 0.0 4.3 0.00 0.00 0.00 46 1012.2
20260505002024 74 222 4.3 4.3 0.00 0.00 0.00 47 1012.2
20260505001024 74 224 0.0 6.1 0.00 0.00 0.00 45 1012.1
20260505000525 75 224 1.7 6.1 0.00 0.00 0.00 44 1012.1
20260505000024 75 227 2.6 7.8 0.00 0.00 0.00 44 1012.1
20260504235524 75 237 1.7 7.8 0.00 0.00 0.00 42 1011.8
20260504235025 75 248 4.3 8.7 0.00 0.00 0.00 42 1011.8
20260504234525 75 257 4.3 9.6 0.00 0.00 0.00 42 1011.8
20260504234024 76 224 3.5 11.3 0.00 0.00 0.00 43 1011.7
20260504233524 76 214 4.3 11.3 0.00 0.00 0.00 42 1011.7
20260504233025 76 226 2.6 9.6 0.00 0.00 0.00 42 1011.7
20260504232524 76 255 3.5 11.3 0.00 0.00 0.00 42 1011.4
20260504231524 77 189 3.5 10.4 0.00 0.00 0.00 41 1011.4
20260504230524 77 201 4.3 12.2 0.00 0.00 0.00 40 1011.5
20260504230024 77 203 10.4 12.2 0.00 0.00 0.00 41 1011.5
20260504225524 77 224 3.5 8.7 0.00 0.00 0.00 40 1011.7
20260504225024 77 233 1.7 11.3 0.00 0.00 0.00 41 1011.7
20260504224524 77 232 7.0 12.2 0.00 0.00 0.00 40 1011.7
20260504224025 77 220 3.5 13.9 0.00 0.00 0.00 40 1011.7
20260504223024 78 231 0.9 12.2 0.00 0.00 0.00 39 1011.7
20260504222524 78 217 6.1 11.3 0.00 0.00 0.00 38 1011.7
20260504222024 78 189 2.6 12.2 0.00 0.00 0.00 38 1011.7
20260504221524 78 181 0.0 12.2 0.00 0.00 0.00 38 1011.7
20260504221024 78 198 6.1 10.4 0.00 0.00 0.00 39 1011.7
20260504220524 78 268 2.6 12.2 0.00 0.00 0.00 37 1011.7
20260504220024 78 209 3.5 13.9 0.00 0.00 0.00 38 1011.7
20260504215524 78 197 1.7 13.9 0.00 0.00 0.00 37 1011.7
20260504214524 78 219 7.8 13.0 0.00 0.00 0.00 37 1011.7
20260504214024 78 220 8.7 13.0 0.00 0.00 0.00 38 1011.7
20260504213524 78 158 0.9 16.5 0.00 0.00 0.00 38 1011.7
20260504212524 78 184 3.5 12.2 0.00 0.00 0.00 37 1011.8
20260504212024 78 226 4.3 13.9 0.00 0.00 0.00 37 1011.8
20260504211524 78 214 7.8 13.9 0.00 0.00 0.00 37 1011.8
20260504210524 78 195 3.5 13.0 0.00 0.00 0.00 39 1011.7
20260504210024 78 203 9.6 12.2 0.00 0.00 0.00 38 1011.7
20260504205524 78 181 7.8 12.2 0.00 0.00 0.00 37 1011.7
20260504205024 78 282 3.5 11.3 0.00 0.00 0.00 38 1011.7
20260504204524 77 223 8.7 13.9 0.00 0.00 0.00 38 1011.7
20260504204024 77 206 8.7 17.4 0.00 0.00 0.00 39 1011.9
20260504203024 77 172 5.2 13.0 0.00 0.00 0.00 39 1011.9
20260504202524 77 222 1.7 10.4 0.00 0.00 0.00 39 1012.0
20260504202024 77 194 5.2 13.9 0.00 0.00 0.00 40 1012.0
20260504201024 77 180 13.9 17.4 0.00 0.00 0.00 40 1012.1
20260504200523 77 197 3.5 11.3 0.00 0.00 0.00 41 1012.1
20260504200023 76 220 7.8 11.3 0.00 0.00 0.00 42 1012.1
20260504195524 76 176 8.7 12.2 0.00 0.00 0.00 40 1012.2
20260504195023 76 221 7.8 12.2 0.00 0.00 0.00 43 1012.2
20260504194525 76 172 4.3 13.9 0.00 0.00 0.00 42 1012.2
20260504194024 76 243 4.3 13.9 0.00 0.00 0.00 42 1012.5
20260504193523 76 255 6.1 13.0 0.00 0.00 0.00 43 1012.5
20260504192523 76 238 2.6 10.4 0.00 0.00 0.00 41 1012.7
20260504192024 76 215 3.5 10.4 0.00 0.00 0.00 41 1012.7
20260504191523 75 293 2.6 12.2 0.00 0.00 0.00 45 1012.7
20260504190523 75 293 10.4 13.0 0.00 0.00 0.00 45 1013.0
20260504190024 75 210 7.8 14.8 0.00 0.00 0.00 43 1013.0
20260504185023 74 227 13.0 13.9 0.00 0.00 0.00 43 1013.3
20260504184523 74 193 12.2 13.9 0.00 0.00 0.00 41 1013.3
20260504183523 74 233 8.7 19.1 0.00 0.00 0.00 42 1013.4
20260504183023 74 215 0.0 14.8 0.00 0.00 0.00 44 1013.4
20260504182523 74 266 6.1 14.8 0.00 0.00 0.00 45 1013.5
20260504182023 74 206 8.7 13.0 0.00 0.00 0.00 45 1013.5
20260504181023 74 166 2.6 6.1 0.00 0.00 0.00 46 1013.7
20260504180523 74 214 4.3 11.3 0.00 0.00 0.00 46 1013.7
20260504180023 74 214 4.3 11.3 0.00 0.00 0.00 45 1013.7
20260504175523 74 177 6.1 11.3 0.00 0.00 0.00 45 1013.7
20260504175023 74 206 9.6 11.3 0.00 0.00 0.00 45 1013.7
20260504174523 74 249 5.2 13.9 0.00 0.00 0.00 44 1013.7
20260504174023 74 221 7.0 13.9 0.00 0.00 0.00 44 1013.8
20260504173522 73 285 6.1 9.6 0.00 0.00 0.00 45 1013.8
20260504173022 73 190 3.5 14.8 0.00 0.00 0.00 46 1013.8
20260504172522 73 234 2.6 14.8 0.00 0.00 0.00 45 1014.0
20260504172022 73 219 4.3 13.9 0.00 0.00 0.00 44 1014.0
20260504171522 73 230 8.7 13.9 0.00 0.00 0.00 46 1014.0
20260504171022 73 195 10.4 13.9 0.00 0.00 0.00 47 1014.1
20260504170522 73 189 4.3 10.4 0.00 0.00 0.00 46 1014.1
20260504151022 69 268 2.6 10.4 0.00 0.00 0.00 53 1015.2
20260504150522 68 243 5.2 10.4 0.00 0.00 0.00 54 1015.2
20260504141022 65 230 7.0 13.0 0.00 0.00 0.00 61 1015.4
20260504140521 65 204 13.0 13.0 0.00 0.00 0.00 61 1015.4